Wind_Speed
17 18 19 19 19 20 20 20 21 21 21 20 20 20 21 22 20 19 22 22 21 22 23 23 24 24 22 21 21 20 19 19 19 19 19 19 20 19 18 18 18 19 19 19 19 19 19 20 20 21 21 21 20 19 19 18 19 19 19 19 20 20 20 20 20 20 20 20 20 20 21 21 21 21 21 22 22 22 22 22 22 21 20 20 19 18 18
18 19 20 21 21 21 21 22 22 22 23 23 23 23 23 23 21 21 22 21 21 24 25 24 24 23 21 21 21 21 21 20 20 20 20 20 21 20 19 19 18 18 19 19 19 20 20 20 21 21 22 22 21 21 20 19 19 19 20 20 21 21 21 21 21 21 21 21 21 22 22 22 23 23 23 23 24 24 24 24 24 24 24 23 22 22 22
19 21 21 21 22 23 22 23 23 24 24 24 25 25 25 24 23 23 23 21 21 25 26 23 22 22 21 21 22 22 22 21 21 21 21 21 21 21 21 20 19 19 18 18 19 20 20 20 21 22 22 22 23 23 22 21 21 20 21 21 21 22 22 22 22 22 22 22 23 23 23 24 24 24 24 25 25 26 26 26 26 26 26 26 25 24 24
20 23 23 22 22 23 23 24 24 24 25 25 25 25 25 25 24 23 23 22 21 25 27 24 22 23 22 21 21 21 21 21 21 22 22 22 22 22 22 22 21 21 20 20 19 20 21 21 22 22 22 23 23 23 23 23 23 22 22 22 22 23 23 23 23 24 23 23 23 23 24 25 25 26 26 26 26 27 27 28 28 28 28 28 28 27 26
20 22 24 23 22 23 26 26 24 22 24 25 24 24 24 26 26 24 24 23 23 24 26 24 23 23 23 22 21 21 21 21 21 21 22 22 22 22 22 23 22 22 22 22 22 22 22 23 23 24 23 23 23 23 24 24 24 24 24 23 24 24 24 24 24 25 25 25 24 24 25 25 25 26 27 27 27 28 28 29 29 30 30 29 29 29 29
18 20 23 23 22 23 26 26 22 22 24 24 24 25 25 26 26 25 23 23 23 23 24 24 23 23 22 21 21 21 21 21 21 21 21 22 23 23 23 23 23 23 23 23 23 23 24 24 25 26 26 25 25 24 25 25 25 25 25 25 25 25 26 26 26 26 26 26 26 26 26 26 26 26 27 28 28 29 30 30 30 30 30 30 30 30 31
17 18 21 22 21 21 24 24 21 21 24 23 23 24 25 26 26 24 23 24 23 22 23 23 22 22 21 21 22 21 21 21 21 21 22 22 22 23 23 23 24 24 24 24 24 24 25 26 26 27 27 27 27 27 27 27 27 27 26 26 26 26 26 27 27 27 27 27 27 27 27 28 27 27 28 28 29 30 30 31 32 31 31 30 30 31 31
18 18 20 21 20 20 24 25 22 19 20 21 22 22 24 27 28 25 23 22 20 19 20 20 21 21 21 23 24 22 20 20 21 22 22 22 22 23 23 23 24 24 25 25 26 26 26 27 27 28 28 28 28 29 28 28 29 28 28 28 28 28 28 27 27 27 27 28 28 29 29 29 28 28 29 29 29 30 31 31 32 33 32 31 31 31 32
19 19 20 22 21 20 23 26 23 19 19 22 22 22 24 28 28 24 21 19 19 19 19 19 20 21 21 24 24 22 19 19 19 19 19 20 20 20 21 22 23 25 26 26 26 27 27 27 28 28 29 29 29 29 29 29 30 30 29 29 30 30 29 29 29 29 28 28 29 29 30 30 29 30 30 30 31 31 31 32 32 33 33 32 32 31 32
21 22 22 23 23 21 23 27 24 19 21 23 23 22 24 27 26 23 20 20 21 21 19 18 18 19 23 25 24 20 18 17 17 19 20 21 21 21 22 24 25 26 27 27 27 27 27 27 27 27 28 29 29 30 30 30 31 31 30 30 31 31 31 30 30 30 30 30 30 31 31 31 31 31 32 32 33 34 34 34 34 34 34 33 33 32 32
24 25 24 25 24 21 24 29 25 20 21 24 23 23 25 26 25 24 24 23 23 21 19 20 20 20 24 27 24 22 21 20 20 23 25 25 24 24 24 25 26 27 27 27 28 28 28 28 27 27 27 28 29 30 30 31 32 32 31 30 31 32 32 32 32 31 31 31 31 32 33 34 34 33 33 34 35 36 37 37 36 36 36 36 35 34 34
27 28 28 27 26 24 27 30 27 22 23 24 24 24 26 25 24 25 25 24 24 23 22 22 22 21 25 26 23 22 24 25 25 26 26 26 26 25 25 25 25 26 27 27 28 28 29 29 29 28 28 27 28 28 29 31 32 32 31 31 31 32 32 32 32 32 32 31 31 32 34 34 34 34 35 36 36 37 37 37 37 37 37 37 37 36 36
28 28 28 28 27 27 29 30 27 24 24 25 27 27 26 25 25 26 25 25 26 27 25 23 23 23 25 25 22 22 23 26 28 28 27 27 27 26 26 26 27 28 28 28 29 30 31 31 32 32 31 30 30 30 30 30 31 33 32 32 32 32 33 33 33 32 33 32 32 33 33 34 34 35 35 36 37 37 37 36 37 37 37 38 38 38 39
26 26 27 28 27 27 28 28 28 25 24 26 28 25 23 25 27 28 27 27 29 29 27 25 25 24 24 25 24 24 25 27 29 28 26 26 26 26 26 26 27 28 28 28 29 30 31 32 33 34 33 33 32 32 31 31 32 33 34 34 34 33 32 33 33 33 33 33 34 34 34 34 35 35 36 36 36 36 36 36 37 37 37 38 38 38 39
28 27 27 28 29 29 29 28 28 26 23 24 25 23 23 27 30 31 31 30 30 29 27 27 27 26 26 26 26 27 28 28 28 27 26 26 27 27 26 26 26 27 27 27 27 28 30 31 32 33 34 33 32 32 32 33 35 36 36 35 35 34 34 33 33 33 34 34 35 35 34 34 34 35 35 36 36 36 36 36 37 37 38 38 38 38 38
29 29 28 29 29 29 28 26 27 28 26 27 28 28 29 31 32 33 32 31 29 29 28 28 30 30 29 28 28 29 28 28 27 27 27 27 27 27 27 27 27 28 28 27 28 29 30 31 32 33 33 33 32 32 32 34 36 37 38 38 37 37 36 35 35 35 35 35 35 35 34 33 34 34 34 34 35 36 36 36 37 37 37 38 38 37 37
31 31 32 31 31 31 30 29 29 32 33 33 32 31 32 34 34 32 30 30 31 30 30 29 29 30 31 30 30 31 30 29 28 28 28 27 27 28 28 28 29 29 29 30 31 31 32 32 33 35 35 35 34 34 34 35 36 37 38 39 39 38 37 37 36 35 35 34 33 32 32 32 32 32 33 33 34 35 36 36 36 36 36 37 37 37 37
34 34 33 33 33 35 36 34 33 35 36 36 35 34 33 33 33 31 30 32 32 30 29 30 30 31 32 31 31 32 32 31 30 30 29 28 29 30 30 30 31 31 32 33 33 33 34 34 35 36 36 36 36 36 36 36 37 37 38 38 38 37 35 34 32 31 30 31 30 30 30 31 31 32 32 33 33 34 36 36 35 35 36 37 37 37 37
32 31 31 32 33 35 37 37 37 37 36 36 35 34 31 30 30 31 31 31 31 31 32 33 33 33 33 33 33 34 33 33 32 32 32 32 32 33 33 33 34 34 35 35 34 33 35 35 35 36 36 35 35 36 36 37 38 38 37 35 35 34 32 30 28 28 29 30 31 30 30 31 31 32 33 34 34 34 35 36 36 36 36 38 38 39 38
33 31 31 33 33 33 35 36 36 37 36 37 37 35 33 32 33 34 35 34 35 36 36 36 36 36 35 35 36 36 35 35 35 35 34 34 34 34 35 35 35 36 37 37 35 34 34 35 35 36 35 34 33 34 34 35 37 37 36 35 34 34 33 30 28 29 30 32 32 33 33 32 33 33 35 36 36 36 37 37 37 37 38 39 40 41 40
36 33 33 34 34 34 36 37 38 37 38 39 40 39 38 38 39 40 41 41 40 40 40 39 39 38 38 38 38 38 38 39 39 39 38 37 37 37 37 37 36 36 37 38 38 36 34 35 36 37 36 34 34 34 34 35 36 37 36 35 35 35 35 34 32 32 33 34 35 36 36 36 36 36 38 39 39 40 40 40 40 41 41 41 42 43 43
38 35 34 35 35 35 37 39 40 40 40 42 44 43 41 42 43 43 43 42 41 42 42 41 41 40 40 40 40 40 40 40 40 41 40 40 39 40 40 40 39 38 37 38 39 39 37 36 35 36 37 36 35 36 36 37 37 38 38 37 36 36 36 37 37 36 36 38 38 39 39 39 38 39 40 41 42 43 42 43 44 44 43 43 44 44 45
40 39 39 38 38 38 39 40 41 41 41 42 44 44 44 45 44 42 41 41 41 42 42 43 43 43 43 42 42 42 42 42 41 41 42 42 42 41 41 42 43 42 40 40 40 41 41 40 38 37 38 37 37 37 38 39 39 39 39 40 39 38 38 39 40 40 40 40 40 41 41 41 41 42 43 43 44 44 44 44 44 42 41 43 45 46 46
43 43 44 44 44 44 45 44 44 43 42 42 43 44 45 46 45 42 42 43 43 44 45 45 45 45 45 44 44 44 44 44 44 43 43 43 44 44 44 44 45 45 45 44 44 44 44 44 44 42 41 40 40 40 40 41 41 42 42 42 42 41 41 41 42 43 43 42 42 42 43 43 42 43 44 45 45 45 46 46 46 42 39 41 45 46 46
45 46 47 47 47 48 49 48 48 47 46 45 46 47 48 50 49 48 49 48 47 46 47 48 48 48 47 46 45 44 44 45 46 46 46 45 45 46 47 48 47 47 48 48 48 47 47 47 47 46 44 43 44 44 43 43 44 45 46 46 46 46 45 45 46 45 45 45 45 44 45 46 44 43 44 47 47 46 47 47 47 45 43 43 44 44 44
49 49 49 48 48 49 50 50 50 50 50 50 50 50 51 52 51 51 52 52 50 49 49 50 50 50 48 48 47 45 45 46 48 49 49 48 48 48 49 50 49 49 50 50 50 49 50 50 50 48 47 47 48 48 47 47 48 49 49 49 48 48 49 49 49 48 48 48 48 47 47 48 48 46 46 47 48 47 47 47 46 45 45 44 43 43 43
51 51 51 51 50 50 51 51 50 50 50 50 51 52 53 54 54 54 54 53 52 52 51 51 51 50 50 50 50 49 49 50 51 52 52 52 51 51 51 51 50 50 52 53 51 51 52 53 52 51 50 50 51 51 50 51 52 52 50 49 48 49 51 51 51 52 52 52 51 49 49 49 49 48 48 48 47 47 47 47 46 44 42 42 42 42 43
53 54 55 55 53 52 54 53 51 50 51 52 54 55 56 57 57 56 55 53 52 53 52 52 52 52 51 52 52 53 53 53 52 53 53 54 54 53 53 52 51 51 53 53 52 51 54 55 54 53 52 52 53 53 52 52 51 51 50 50 51 52 54 54 54 54 54 52 51 50 50 49 49 48 49 49 48 46 46 47 46 42 40 41 41 41 42
57 56 56 56 55 55 55 53 51 52 55 57 57 57 58 58 57 56 55 55 54 54 55 54 52 53 53 54 54 55 55 54 54 54 55 55 55 56 56 55 52 52 54 54 52 52 54 57 56 55 54 54 55 55 53 52 51 52 53 54 54 55 55 55 54 54 53 52 50 51 51 52 50 48 48 49 48 46 46 46 44 40 40 39 38 38 40
60 59 58 58 57 57 56 55 55 57 59 58 57 57 56 56 57 57 57 57 56 56 55 54 53 54 55 55 55 55 55 56 56 56 56 56 55 56 56 56 54 53 54 53 52 52 54 56 55 55 54 55 55 54 52 52 53 54 55 55 56 56 55 55 54 54 53 52 52 52 52 53 53 51 49 49 47 45 45 45 42 39 40 39 38 37 39
61 60 59 59 59 59 59 59 60 61 60 58 57 56 55 54 55 56 57 57 57 56 55 55 55 55 56 56 56 56 56 57 57 57 57 57 56 55 55 55 54 53 53 52 52 53 54 55 55 55 55 54 53 51 51 53 55 56 56 57 56 56 55 53 53 53 53 53 53 52 51 51 52 51 50 49 47 44 44 44 42 40 40 39 38 38 40
60 59 59 59 58 58 59 59 60 60 59 57 55 54 53 53 54 56 56 56 57 57 56 56 56 56 57 57 57 57 57 58 59 58 58 58 57 56 55 54 54 54 53 53 53 54 54 55 56 55 54 52 51 51 53 55 57 58 58 58 56 54 54 53 52 53 54 53 53 53 52 51 51 51 49 48 47 44 43 42 41 40 39 39 39 39 40
59 57 56 56 55 55 57 57 57 57 56 54 52 51 51 52 53 55 55 56 57 57 57 58 58 58 58 58 59 59 59 60 59 59 59 58 57 56 56 55 55 55 55 55 55 55 55 55 55 54 54 53 53 54 56 57 59 59 59 58 56 55 56 56 55 55 54 53 52 52 51 50 50 49 48 47 46 45 43 41 40 39 38 39 40 40 40
55 55 54 52 52 52 54 54 53 53 53 53 51 50 51 52 53 54 55 55 56 57 58 59 60 59 59 59 60 61 60 59 58 58 58 57 56 56 56 55 55 55 55 55 54 54 54 54 54 54 54 55 56 57 58 59 59 59 59 58 58 58 58 57 56 54 53 52 52 51 50 49 48 47 47 46 45 44 43 41 40 40 39 40 41 40 40
52 52 51 50 50 50 51 52 52 51 51 52 52 52 53 53 54 55 56 57 57 58 59 60 61 61 60 60 60 59 58 56 55 55 54 53 52 52 52 52 52 52 52 52 52 52 52 53 53 54 54 55 57 57 57 58 59 58 58 58 58 58 57 55 54 53 53 52 52 51 49 48 47 46 46 46 45 44 44 42 41 41 41 41 41 41 42
49 49 48 48 48 48 49 50 50 51 51 52 53 54 55 55 56 57 58 59 59 60 60 61 61 59 57 56 54 53 52 51 50 49 48 48 47 47 47 48 48 49 49 50 50 50 51 51 53 53 54 55 56 57 57 57 57 57 57 56 56 56 56 54 53 53 52 52 51 50 49 48 47 47 47 47 47 47 46 44 42 41 42 42 42 42 43
47 47 47 48 48 49 49 51 52 52 53 54 55 56 57 57 58 58 58 59 58 58 58 57 56 53 50 49 48 48 47 47 46 46 45 45 45 45 46 46 47 48 49 49 50 50 51 51 52 53 53 55 56 56 56 56 56 56 56 56 55 55 55 55 54 53 52 51 50 49 48 48 47 47 47 47 48 49 48 46 44 42 42 43 43 43 43
48 49 50 51 51 52 52 53 54 54 54 55 55 56 56 56 56 55 55 54 54 53 52 51 50 48 47 46 46 46 45 45 45 46 45 46 46 46 47 47 48 48 49 49 49 50 50 51 52 53 54 54 55 55 55 55 55 56 56 56 56 56 55 55 54 53 52 50 49 48 47 47 46 47 48 48 47 48 49 48 46 44 43 43 44 44 44
51 52 52 53 53 53 53 53 53 53 53 53 52 52 52 52 51 51 50 50 50 50 49 48 47 47 46 46 45 46 46 46 46 46 46 47 47 47 47 48 49 49 49 50 50 50 51 52 53 54 55 55 55 55 56 56 56 56 56 57 57 56 55 54 53 52 51 49 48 47 46 46 46 46 47 47 47 47 47 46 45 44 43 43 43 44 44
51 51 51 51 50 50 50 50 49 49 49 49 48 48 48 48 48 48 48 48 48 48 47 46 46 46 46 46 46 46 46 46 47 47 47 47 47 48 48 50 51 51 51 52 52 52 53 55 56 56 56 57 56 56 56 56 57 57 57 56 56 55 54 53 52 51 50 48 47 46 46 46 45 46 45 45 45 46 46 45 44 44 43 42 42 44 44
48 48 47 47 46 46 46 46 46 46 46 46 45 45 45 46 46 46 46 47 47 46 46 46 47 47 47 46 47 47 47 47 47 48 48 48 49 49 50 51 52 53 53 54 55 55 56 57 58 58 58 57 56 56 56 55 55 55 54 54 54 53 52 51 50 50 48 48 47 47 46 46 46 46 46 45 44 45 46 46 46 47 46 45 43 44 44
44 44 44 44 44 44 44 44 44 44 44 43 43 44 44 44 44 45 45 46 46 46 46 47 47 47 47 47 48 48 48 48 48 49 50 51 51 52 52 53 54 55 55 56 56 56 57 58 59 59 57 56 55 55 54 52 51 51 50 50 49 49 48 47 46 45 45 45 45 46 46 46 46 47 48 47 46 47 49 49 49 50 50 49 47 45 45
41 41 41 42 42 42 42 43 43 43 43 43 43 43 44 44 45 45 45 46 46 46 46 47 48 48 48 48 49 50 50 51 51 52 52 53 53 53 54 55 55 56 56 56 55 55 54 54 54 54 53 52 51 51 49 48 46 45 44 43 42 42 41 41 40 40 39 40 40 41 42 43 43 44 45 44 42 43 45 46 47 47 48 49 48 48 48
39 39 39 40 41 41 42 42 42 42 42 42 43 43 44 44 45 45 46 46 46 47 47 47 48 49 49 50 51 51 52 53 53 53 54 54 55 55 55 55 55 54 54 53 52 52 51 50 49 49 49 48 47 46 44 41 40 39 38 38 38 38 38 37 37 37 37 38 38 38 39 40 40 40 41 40 39 38 40 42 44 45 46 47 47 47 46
37 38 39 39 40 41 41 42 42 42 42 43 43 43 43 44 44 45 46 46 47 47 48 48 49 49 50 50 50 50 50 51 51 52 52 53 53 53 53 52 50 49 49 49 48 47 47 47 46 46 45 44 43 42 39 37 37 37 38 38 38 39 39 39 39 39 39 40 40 40 39 40 41 41 41 41 41 41 41 43 44 44 44 44 44 44 43
37 38 39 39 40 41 41 41 42 42 43 43 44 44 45 45 46 46 47 48 48 49 49 50 50 50 50 50 49 48 48 48 48 47 47 47 47 47 47 46 45 45 45 44 44 43 42 42 42 41 40 39 39 38 38 38 38 39 39 40 40 40 40 40 40 40 40 41 41 41 41 41 43 43 44 44 44 44 44 45 46 44 40 38 37 38 39
38 38 39 39 40 40 40 41 41 42 43 44 45 45 46 47 47 48 48 49 49 50 50 50 50 49 48 47 46 46 45 45 44 43 42 42 42 42 42 41 41 41 41 40 40 40 39 39 39 39 39 39 38 37 38 39 39 39 39 39 40 40 40 40 40 40 40 41 41 41 42 43 44 44 44 44 44 43 43 42 42 41 39 38 37 36 36
38 39 40 39 39 39 40 41 42 42 43 44 45 46 46 46 47 47 47 46 46 45 45 45 45 44 42 41 41 41 41 41 41 41 41 41 40 39 39 39 39 38 38 38 39 39 38 38 38 38 38 39 38 37 37 39 40 41 40 40 40 40 40 41 41 42 42 43 43 43 43 44 44 43 42 41 41 40 37 35 33 34 35 37 39 39 38
38 39 40 40 40 40 40 41 41 43 44 44 44 44 44 45 45 44 42 41 40 40 40 40 40 40 39 39 39 39 39 39 40 41 41 40 39 39 39 40 39 39 39 40 40 41 41 41 40 39 39 40 39 38 38 39 40 41 41 41 41 41 42 43 43 44 44 44 44 43 43 43 42 41 40 39 38 36 34 32 31 29 30 31 33 35 36
39 40 41 41 41 40 40 39 39 41 42 43 43 43 43 44 43 41 38 37 38 39 40 40 41 41 40 40 40 39 39 40 40 41 41 41 41 42 42 42 41 40 40 40 40 41 41 41 40 40 41 41 41 40 40 40 40 41 42 42 42 42 43 43 43 44 44 43 43 42 42 42 41 38 37 38 37 35 33 33 32 30 28 28 30 32 33
38 39 40 39 40 40 39 38 38 38 38 38 38 39 39 39 38 38 39 40 41 42 43 43 42 41 41 40 40 40 41 41 41 41 41 42 42 42 41 41 40 40 39 39 39 39 39 40 40 40 41 41 41 41 41 41 41 42 42 42 42 43 43 43 42 41 41 41 40 40 41 40 39 37 36 36 36 35 34 33 32 31 30 30 30 31 32
37 39 40 40 41 41 39 37 35 34 33 32 33 35 35 37 39 41 43 44 44 44 43 41 40 39 39 39 39 40 40 41 41 40 40 40 40 40 40 40 40 39 39 39 40 40 41 41 42 42 42 43 42 42 42 42 42 42 42 42 42 42 42 41 41 40 39 39 38 38 38 38 37 36 36 36 36 35 33 32 32 33 33 32 32 32 32
Wind_Direction
272 277 280 282 284 286 289 291 293 295 297 297 298 299 299 300 303 302 301 305 306 301 300 301 302 306 308 306 307 307 302 297 296 294 295 297 298 299 301 301 302 304 307 311 315 320 326 330 333 334 336 337 338 339 340 340 339 337 336 335 334 333 332 331 330 329 327 325 323 321 320 318 317 315 314 313 312 311 311 311 311 312 315 317 320 324 328
276 277 279 282 283 285 288 289 290 291 293 295 296 297 296 297 299 297 297 301 302 298 297 300 302 304 305 304 307 309 306 301 296 293 293 293 294 297 298 299 301 303 305 308 312 317 322 326 330 331 331 332 332 334 334 335 336 335 334 332 331 330 329 328 328 327 327 326 325 325 324 322 320 318 316 314 312 312 311 310 309 309 310 311 314 317 320
277 277 278 281 284 286 287 286 287 289 292 294 295 294 295 296 297 296 296 298 297 294 295 299 302 302 301 301 304 305 305 302 298 294 292 291 293 294 295 297 299 300 302 306 310 314 318 322 325 328 328 327 327 327 329 330 331 332 332 330 329 327 326 324 324 324 324 325 325 325 325 323 322 320 318 316 314 313 313 312 311 310 309 310 310 312 314
278 280 281 281 283 286 285 284 287 292 293 293 292 294 296 296 296 297 297 299 297 294 297 302 303 302 302 303 302 301 301 301 298 293 291 291 291 292 294 296 298 299 301 302 305 309 312 315 318 321 323 324 324 324 325 326 327 328 328 328 327 326 324 323 322 321 321 322 323 323 322 322 322 321 320 319 317 315 314 313 312 311 311 311 311 311 311
280 282 284 284 286 287 285 284 289 292 290 290 293 295 296 295 296 296 296 297 296 296 299 303 304 303 304 305 304 301 298 296 294 292 291 291 290 290 292 293 296 299 302 303 305 307 309 311 312 313 315 317 319 321 322 323 323 324 324 325 325 325 324 323 322 321 320 320 319 319 318 319 320 320 320 319 318 317 315 313 312 311 311 312 312 311 310
287 286 286 289 291 290 288 290 295 293 290 294 298 297 296 295 295 296 298 299 299 298 300 302 303 304 307 306 303 299 294 292 291 290 290 290 290 290 290 291 293 296 299 302 305 306 307 308 308 309 310 312 315 317 320 321 321 321 322 322 322 322 322 322 322 321 320 319 318 317 317 316 317 318 318 319 318 318 317 315 314 312 312 312 312 311 310
292 290 291 293 295 294 294 295 298 297 297 300 300 299 299 297 296 298 301 300 300 300 301 303 306 309 310 305 298 293 292 292 291 290 289 289 289 289 290 292 293 295 298 300 302 304 305 306 306 307 309 311 313 315 317 319 320 320 321 321 320 320 320 319 319 319 319 318 318 317 317 316 316 316 316 316 317 317 316 316 315 314 314 313 312 310 309
294 295 294 294 295 299 299 299 301 304 304 301 299 300 300 298 299 305 308 305 302 302 303 307 310 310 307 299 293 294 297 296 294 292 291 289 288 289 291 293 295 297 298 299 300 301 301 302 304 305 306 308 310 312 314 316 316 317 319 319 319 318 318 317 317 317 317 317 317 317 317 317 317 316 316 315 315 314 314 314 313 314 314 314 313 312 310
291 293 293 294 295 298 297 296 300 309 307 300 299 302 300 297 302 311 316 313 307 304 306 311 313 312 305 297 296 302 305 304 303 301 299 298 298 297 296 297 299 300 299 298 298 298 298 300 301 303 304 306 307 308 310 311 312 313 315 316 316 316 316 316 316 316 316 315 315 316 317 318 318 318 317 317 316 315 314 312 311 311 311 311 311 311 310
285 286 288 289 292 296 295 292 297 307 304 298 300 302 298 296 302 310 311 307 304 302 307 314 317 315 306 301 307 314 311 307 308 306 304 304 303 302 301 301 301 300 298 297 296 296 296 297 299 301 303 304 305 306 307 308 308 309 311 313 313 313 315 315 315 316 316 316 315 316 317 319 319 319 319 319 319 319 317 316 314 311 310 309 309 309 309
281 282 283 283 285 290 289 287 293 301 296 294 299 300 296 297 303 306 305 304 303 304 308 312 315 314 307 306 314 317 310 308 308 306 304 304 303 304 305 305 303 301 299 297 295 295 295 295 296 298 300 302 304 305 306 307 307 308 310 312 312 313 314 315 315 316 316 316 316 317 319 320 320 321 321 321 321 321 320 319 318 316 313 312 311 311 311
278 278 280 281 282 284 282 283 290 293 291 293 294 292 292 296 300 300 300 303 303 302 305 308 310 309 306 307 312 309 306 309 311 310 308 307 307 308 307 305 303 302 301 301 299 299 298 297 298 298 300 302 305 306 308 309 308 308 311 313 313 313 314 315 315 314 314 314 315 315 317 318 319 321 321 321 321 321 320 320 319 318 316 313 312 312 312
277 277 278 279 280 280 279 282 286 287 289 290 286 286 291 295 294 293 296 298 298 298 301 303 305 305 302 303 304 300 300 306 309 309 308 306 306 306 305 303 302 302 302 302 302 302 303 303 303 303 305 307 308 309 309 309 308 308 311 312 313 314 314 314 313 312 311 312 313 314 315 317 318 319 319 319 320 320 319 319 319 318 317 314 313 313 313
277 279 281 283 283 280 280 284 286 287 287 284 282 287 291 290 290 292 295 294 293 295 298 299 299 297 296 296 296 294 295 299 302 303 304 303 302 302 301 300 299 298 299 300 301 303 305 306 307 308 309 310 311 311 311 309 308 308 310 311 312 313 313 311 310 310 311 312 313 314 315 316 317 318 318 318 318 318 318 318 318 318 317 315 315 314 314
279 278 281 284 282 279 280 284 286 286 284 281 285 291 289 287 290 293 293 293 294 295 298 298 295 293 293 293 293 293 294 296 297 298 299 298 298 298 298 298 297 297 298 300 301 304 305 306 307 308 308 309 310 311 311 310 309 310 310 311 311 311 311 310 309 310 312 312 313 314 315 316 316 317 317 317 317 317 317 318 318 318 317 316 315 315 314
277 278 280 281 278 277 279 282 283 283 281 281 284 286 286 287 288 289 291 295 295 294 294 292 291 292 293 293 293 293 293 294 294 295 295 295 294 294 295 296 296 296 297 299 301 303 303 303 304 304 305 306 307 308 308 308 308 309 310 310 310 311 311 310 310 310 311 311 311 313 314 315 315 315 315 315 314 315 316 319 320 319 318 317 315 314 314
272 275 277 277 277 278 279 279 278 280 282 283 282 281 283 285 285 288 293 294 292 291 291 289 289 290 291 292 292 292 292 292 292 292 293 292 292 293 293 294 293 293 296 299 302 302 301 302 302 302 303 305 306 306 307 308 308 309 310 310 311 311 311 309 308 307 308 309 310 311 312 313 313 313 312 312 312 312 313 316 319 320 321 320 319 317 317
269 271 273 274 274 276 278 278 278 279 281 281 281 281 283 284 285 288 289 286 286 289 289 289 289 290 291 291 291 290 290 291 290 290 291 290 290 291 292 292 292 293 295 298 300 300 299 300 301 302 303 306 307 309 310 310 310 311 312 313 313 314 315 313 310 308 307 307 307 308 309 309 310 311 311 310 310 309 310 312 316 319 320 321 320 320 320
269 270 272 273 273 273 275 277 277 278 279 278 279 282 286 286 286 285 282 281 283 285 286 287 289 289 289 289 289 289 289 289 289 290 290 289 289 290 291 291 291 293 294 295 296 296 295 296 298 299 301 304 306 308 309 310 310 310 312 312 313 315 317 315 311 308 306 304 304 305 305 306 307 308 308 308 308 307 308 311 313 315 317 317 318 319 319
271 271 271 270 271 274 275 274 274 275 277 279 280 282 284 283 282 281 281 283 284 284 285 286 287 286 287 287 287 288 288 289 290 290 290 290 290 290 289 289 290 292 293 294 294 294 294 295 296 296 298 301 303 303 304 304 305 306 307 309 310 312 312 310 306 303 302 301 301 302 303 304 305 306 307 307 307 308 309 311 312 312 313 314 316 316 316
269 271 270 269 269 271 272 272 272 274 276 278 279 280 280 279 278 279 280 283 284 284 284 284 284 285 285 285 285 286 287 287 289 289 290 290 290 289 289 289 290 290 291 292 294 294 293 294 295 296 298 299 300 299 299 299 300 300 302 303 305 306 306 305 302 300 300 300 301 301 303 304 305 306 306 306 307 308 309 310 311 311 311 312 314 314 314
266 267 268 268 268 268 268 269 271 273 275 276 277 278 277 277 278 280 281 281 282 282 282 283 283 284 284 284 284 285 285 286 287 288 289 289 289 289 290 290 291 290 290 290 292 293 293 293 293 294 296 297 297 296 296 296 296 297 298 299 300 301 302 302 301 299 299 299 300 301 301 302 303 304 304 305 306 307 308 309 310 311 311 311 312 313 313
262 263 264 266 267 268 268 269 272 274 274 275 275 276 275 275 276 277 278 279 280 280 281 282 282 283 283 283 284 284 285 286 286 287 288 288 289 290 290 291 292 292 291 291 291 293 294 294 293 293 293 293 292 293 293 293 294 294 295 296 296 297 297 297 297 297 296 296 296 297 297 298 299 300 301 303 304 305 306 307 308 308 306 306 308 311 312
262 262 263 264 265 266 268 269 271 272 272 274 274 273 273 273 274 274 276 277 278 280 281 282 281 281 281 282 283 284 285 286 286 286 287 288 289 289 290 290 291 292 292 292 292 293 294 294 293 293 292 290 289 289 290 290 291 292 292 292 293 293 293 293 292 293 292 292 293 293 293 294 295 297 299 300 302 303 303 304 305 304 301 300 304 308 310
263 263 263 264 266 266 267 268 269 270 271 272 272 271 271 271 273 275 276 275 276 278 280 280 280 281 281 282 283 284 284 285 286 287 287 287 287 287 288 288 289 289 290 290 291 292 293 292 291 291 290 289 289 290 289 289 290 290 290 290 291 291 291 290 290 290 290 290 291 292 292 292 293 295 296 297 299 301 301 302 303 303 301 301 303 306 308
265 265 265 264 264 266 267 267 268 268 268 269 270 271 272 272 273 273 273 273 274 276 276 277 279 281 283 284 284 284 284 285 286 287 287 287 287 287 287 287 288 288 288 288 289 290 290 289 289 289 288 289 290 291 290 290 290 290 289 289 289 289 289 289 289 289 289 289 290 290 290 291 293 294 294 296 298 299 299 300 301 301 301 302 303 304 305
265 266 265 265 266 268 268 267 266 267 268 269 271 272 273 272 272 271 271 274 275 276 276 278 279 280 281 283 283 282 283 285 286 286 286 287 286 286 286 286 287 287 287 287 287 288 287 286 286 286 286 288 289 289 288 289 290 290 289 288 288 288 288 288 288 288 288 288 289 289 289 289 291 293 293 295 297 297 297 299 300 300 300 301 301 303 303
265 265 266 267 268 267 266 265 266 268 270 270 270 270 270 270 271 272 274 276 277 277 277 279 281 281 281 282 282 282 283 284 284 285 285 286 286 286 285 285 285 285 284 284 285 285 284 284 285 285 286 287 287 286 287 288 289 289 289 288 288 287 287 287 288 288 289 289 289 289 288 288 290 291 292 294 295 295 295 297 299 299 298 299 301 302 302
264 264 266 267 267 267 268 269 269 269 268 267 268 269 270 272 274 276 277 277 277 277 277 279 280 281 282 282 282 283 284 285 285 285 285 285 286 286 286 285 285 284 283 283 283 282 282 283 284 285 285 285 285 286 288 288 287 286 287 288 288 287 288 289 290 290 290 290 289 289 289 290 290 291 291 292 294 294 294 296 298 297 296 298 301 301 299
264 265 266 267 268 269 270 270 269 269 269 270 271 271 272 274 275 276 277 277 277 277 278 279 279 280 281 282 283 284 284 284 285 285 285 284 284 284 284 285 285 284 283 283 283 281 281 282 284 285 285 285 287 289 289 287 286 286 287 288 288 289 290 291 292 291 291 290 289 289 289 290 291 292 292 292 293 293 293 295 296 294 293 297 300 299 297
266 267 268 268 269 269 269 269 269 271 272 273 273 273 273 274 274 274 274 275 276 277 278 278 279 280 281 282 283 283 284 285 285 285 285 284 283 283 283 284 284 284 284 284 284 283 283 283 284 285 286 287 289 289 288 286 286 287 288 290 291 292 293 293 292 291 291 291 290 290 290 290 292 293 293 292 292 292 292 294 294 293 293 295 296 294 292
267 268 269 269 269 270 270 270 270 272 273 273 273 273 274 274 273 273 274 275 276 277 278 279 279 280 281 282 283 283 284 284 285 284 284 284 284 284 284 284 284 284 284 285 285 284 285 285 286 288 288 288 288 287 285 286 287 289 291 293 294 294 293 293 292 292 292 292 291 291 292 292 292 293 293 293 293 292 292 292 293 294 294 293 291 290 291
267 267 268 268 269 269 270 270 271 272 273 273 274 273 273 273 273 274 275 276 277 278 279 280 280 281 282 283 284 284 284 284 284 283 283 283 284 284 284 284 284 285 285 285 285 286 286 287 288 288 288 288 286 285 286 288 290 291 293 294 293 293 292 293 293 293 293 292 291 291 292 292 292 293 293 293 293 292 291 291 291 291 291 290 290 291 292
266 265 266 267 268 268 269 270 271 272 274 274 274 274 273 274 274 275 277 278 279 280 281 282 282 283 284 285 285 285 285 284 283 283 283 283 283 284 284 285 285 285 285 285 285 286 286 287 287 288 288 287 287 288 289 290 291 291 292 292 291 291 292 292 293 293 292 292 291 292 292 292 292 292 292 292 292 291 291 290 290 290 288 288 289 290 291
265 266 266 267 267 268 270 271 272 273 273 274 275 275 276 276 277 278 279 280 281 282 283 284 285 286 287 287 286 285 285 284 284 283 284 284 283 284 284 284 285 285 285 285 285 285 286 286 287 287 288 288 288 288 289 289 289 289 289 289 289 290 291 292 292 291 291 291 291 292 292 292 292 292 292 292 291 291 291 290 290 289 287 287 287 288 288
267 268 268 268 267 268 269 270 271 272 273 274 275 277 278 279 280 281 282 283 284 284 285 285 286 287 287 286 286 285 285 285 285 285 285 285 284 284 284 284 284 284 284 284 285 285 285 286 286 287 287 287 286 286 287 287 288 288 288 288 289 290 291 291 291 290 290 291 291 291 291 291 291 291 292 292 292 292 292 291 289 287 285 285 284 284 285
268 268 269 269 269 269 270 271 271 272 274 275 277 278 279 280 281 282 283 284 284 285 285 286 286 286 285 284 284 284 284 284 284 284 285 285 284 284 284 284 283 283 284 284 285 285 286 286 286 286 285 285 285 286 287 287 288 288 289 289 289 289 289 289 290 290 290 290 290 290 289 290 290 290 290 291 292 293 293 291 289 286 283 282 281 281 282
268 269 270 270 271 272 273 274 274 275 276 277 278 279 280 281 282 282 283 283 284 284 284 285 285 284 284 283 283 284 284 284 284 284 285 285 285 285 285 284 284 284 284 285 285 286 286 286 285 285 285 285 286 287 287 287 286 287 287 287 287 287 287 288 288 289 290 290 290 290 289 289 289 289 289 291 292 291 290 290 288 285 282 279 278 278 279
271 271 272 272 273 273 274 275 276 277 278 278 279 280 281 281 281 282 282 282 283 283 284 284 285 285 284 284 285 285 285 285 285 285 285 285 285 286 286 285 285 285 286 286 286 287 287 286 285 285 286 286 286 286 286 286 286 285 285 285 285 286 286 287 287 288 289 290 290 290 289 289 289 288 288 288 288 287 287 287 287 285 283 280 278 277 278
273 273 274 274 275 275 276 276 277 277 278 278 279 279 280 280 281 281 281 282 283 284 284 285 286 286 286 286 287 287 287 287 287 287 286 286 286 286 286 286 286 286 286 286 287 287 286 286 285 286 286 286 286 286 286 285 285 285 284 284 285 285 286 286 286 286 286 287 287 288 288 287 286 284 284 284 285 285 284 284 284 284 283 281 278 278 279
274 275 276 277 277 278 278 278 278 278 278 278 279 279 279 280 281 281 282 283 284 285 286 287 287 287 287 288 288 288 288 288 288 288 288 288 288 288 287 287 287 287 287 287 287 287 287 286 285 286 287 286 286 285 284 284 284 284 285 285 286 286 286 286 286 286 285 285 285 285 284 283 282 282 282 282 283 283 283 283 284 284 284 282 281 280 280
276 277 278 279 279 279 279 279 279 279 279 280 280 281 281 281 282 283 284 285 286 287 287 288 288 288 288 288 288 288 288 288 288 288 288 288 288 288 288 288 287 288 288 288 288 288 288 288 287 288 288 287 286 286 286 286 286 286 286 286 287 287 287 287 286 286 285 284 283 283 283 283 283 283 284 284 284 284 284 285 285 284 282 282 280 279 279
277 278 279 279 279 279 279 279 280 281 281 282 282 283 283 284 284 284 285 285 286 287 287 287 288 288 288 288 288 288 288 288 288 288 288 288 288 288 288 287 288 288 288 288 288 288 288 288 288 288 289 288 287 287 288 287 287 286 286 286 286 286 286 286 286 285 285 284 283 283 283 284 284 284 284 285 286 285 285 285 284 283 281 280 279 278 278
277 278 279 279 280 280 280 281 282 283 283 284 284 284 285 285 286 286 286 286 286 286 287 287 287 288 288 288 288 288 288 288 289 289 288 288 288 288 288 288 288 288 288 288 288 288 288 287 287 287 288 288 288 288 287 285 284 283 283 283 283 283 283 284 284 285 285 285 285 285 284 284 284 284 284 285 284 283 281 281 282 282 282 283 283 282 281
278 278 279 280 280 281 282 283 283 284 285 285 285 285 286 286 286 287 287 288 288 288 287 287 287 287 287 288 288 288 289 289 289 289 288 288 288 288 288 288 288 288 288 288 288 288 287 288 288 287 287 286 286 285 283 281 280 280 280 280 280 281 281 282 284 285 286 287 287 286 285 284 284 284 284 283 283 281 280 279 280 282 284 285 285 284 281
279 279 280 280 281 282 283 283 284 285 285 286 286 287 287 287 287 288 288 288 288 288 287 287 287 288 288 288 288 288 288 288 288 288 288 288 288 288 288 288 288 287 287 287 287 287 287 287 287 288 288 286 284 282 281 281 282 282 281 280 280 281 282 283 284 285 286 286 286 285 285 284 284 285 285 284 284 283 283 282 282 283 283 284 285 284 281
280 280 280 281 282 282 283 283 284 284 285 286 286 287 287 287 287 287 287 287 287 287 288 288 288 288 288 288 288 288 288 288 288 288 289 289 289 290 290 289 288 287 288 288 288 288 288 288 288 289 289 288 286 285 284 284 284 283 282 282 282 282 282 282 282 283 284 284 284 284 284 284 286 287 287 287 287 287 285 285 285 284 281 280 281 282 282
279 280 280 281 281 282 283 284 284 285 285 286 286 286 286 287 287 287 287 287 287 288 288 287 287 287 287 288 288 289 290 291 291 291 290 290 290 289 289 288 288 288 289 290 290 291 291 291 290 289 288 287 287 287 285 284 284 284 283 283 283 283 283 282 282 283 284 284 285 285 285 286 288 289 290 289 288 287 284 285 287 287 284 281 281 282 282
279 280 281 281 282 283 284 284 284 284 284 285 285 285 285 285 286 286 286 286 285 285 284 284 284 285 285 286 287 288 289 289 289 288 288 288 287 286 286 287 288 289 289 289 290 291 291 291 290 289 288 288 288 288 287 286 285 285 284 285 285 285 285 285 285 285 286 287 287 287 288 289 291 292 291 289 288 286 282 281 282 284 285 283 282 281 281
279 279 281 282 283 284 284 284 283 284 284 283 283 283 283 283 283 283 282 281 280 280 281 282 284 284 285 285 285 285 285 284 284 284 285 286 286 285 286 286 287 287 288 289 289 289 289 290 290 290 290 289 289 289 288 287 286 286 286 286 286 286 287 287 288 288 289 290 290 290 291 292 293 293 291 289 288 287 284 281 278 278 280 282 282 280 280
279 279 281 282 283 284 284 283 282 282 283 282 281 280 281 281 281 280 279 279 280 282 283 284 284 284 284 283 283 283 283 283 284 284 285 285 285 285 285 286 286 287 288 289 289 290 290 291 291 291 292 292 292 292 291 291 290 289 289 289 289 289 290 291 291 291 292 292 292 292 292 292 293 293 292 291 289 288 286 283 278 275 275 279 282 283 283
279 280 282 283 284 285 285 284 282 280 279 279 278 277 276 277 277 278 279 281 283 284 285 285 284 284 284 283 283 283 283 283 284 284 284 284 284 284 284 285 286 287 288 289 289 290 290 290 290 291 291 292 293 293 293 294 293 293 293 292 292 292 293 293 294 293 294 294 294 292 292 292 293 293 293 292 291 289 287 285 281 276 274 275 278 282 284
Height
5840 5839 5839 5839 5838 5838 5837 5837 5836 5836 5835 5835 5834 5834 5833 5832 5832 5831 5829 5828 5828 5827 5825 5824 5823 5822 5821 5820 5818 5817 5816 5815 5814 5814 5813 5812 5811 5810 5809 5808 5808 5806 5805 5804 5803 5802 5801 5800 5798 5797 5795 5794 5792 5791 5789 5788 5786 5785 5783 5782 5780 5779 5777 5775 5774 5772 5771 5769 5768 5767 5765 5764 5763 5761 5760 5759 5758 5756 5755 5754 5752 5751 5749 5748 5747 5746 5744
5838 5838 5837 5837 5836 5836 5836 5835 5834 5834 5833 5832 5832 5831 5830 5829 5829 5829 5827 5827 5826 5823 5822 5822 5821 5820 5819 5817 5816 5815 5814 5813 5812 5811 5811 5810 5809 5808 5807 5806 5806 5805 5804 5802 5801 5800 5799 5798 5797 5795 5794 5792 5791 5790 5788 5786 5785 5783 5782 5780 5779 5777 5775 5774 5772 5771 5769 5768 5766 5765 5763 5762 5761 5759 5758 5757 5755 5754 5753 5752 5750 5749 5747 5746 5745 5743 5742
5836 5835 5835 5835 5834 5833 5833 5833 5832 5831 5831 5830 5829 5828 5827 5827 5826 5826 5825 5825 5824 5820 5819 5820 5819 5817 5817 5816 5814 5813 5812 5811 5810 5809 5808 5808 5807 5806 5805 5804 5804 5803 5802 5801 5800 5799 5797 5796 5795 5794 5792 5791 5789 5788 5786 5785 5783 5782 5780 5779 5777 5776 5774 5772 5771 5769 5768 5766 5764 5763 5761 5760 5759 5757 5756 5754 5753 5752 5750 5749 5748 5746 5745 5744 5742 5741 5739
5834 5833 5832 5832 5832 5831 5831 5830 5830 5829 5828 5827 5826 5825 5825 5824 5823 5823 5822 5821 5821 5818 5816 5817 5816 5815 5814 5813 5812 5811 5810 5809 5808 5807 5806 5805 5805 5804 5803 5802 5801 5800 5800 5799 5798 5797 5796 5795 5793 5792 5791 5789 5788 5786 5784 5783 5781 5780 5779 5777 5775 5774 5772 5771 5769 5767 5766 5764 5763 5761 5760 5758 5757 5755 5754 5752 5751 5749 5748 5746 5745 5743 5742 5741 5739 5738 5736
5832 5831 5830 5829 5829 5829 5827 5827 5828 5828 5825 5824 5824 5823 5822 5821 5820 5820 5819 5818 5818 5816 5814 5814 5813 5812 5812 5811 5810 5808 5807 5806 5805 5804 5803 5803 5802 5802 5801 5800 5799 5798 5797 5796 5795 5794 5793 5792 5791 5790 5789 5788 5786 5784 5783 5781 5780 5778 5777 5775 5773 5772 5770 5768 5767 5765 5764 5762 5761 5759 5758 5756 5755 5753 5751 5750 5748 5747 5745 5744 5742 5740 5739 5738 5736 5735 5733
5829 5828 5827 5827 5827 5826 5824 5824 5825 5825 5823 5822 5822 5821 5820 5819 5817 5817 5817 5815 5815 5814 5812 5811 5810 5810 5809 5808 5807 5805 5804 5803 5803 5802 5801 5800 5800 5799 5799 5798 5797 5796 5795 5794 5793 5792 5791 5790 5788 5787 5786 5785 5783 5782 5781 5779 5777 5776 5774 5773 5771 5770 5768 5766 5764 5763 5761 5760 5758 5757 5755 5754 5752 5750 5749 5747 5745 5744 5742 5740 5739 5737 5736 5735 5733 5731 5730
5827 5826 5825 5824 5824 5823 5821 5821 5822 5822 5821 5820 5819 5818 5817 5815 5814 5815 5814 5813 5812 5811 5810 5809 5808 5807 5807 5805 5803 5802 5801 5801 5800 5799 5799 5798 5797 5797 5796 5796 5795 5794 5793 5792 5791 5790 5788 5787 5786 5784 5783 5781 5780 5779 5778 5776 5775 5773 5772 5770 5769 5767 5766 5764 5762 5760 5759 5757 5755 5754 5753 5751 5749 5748 5746 5744 5742 5741 5739 5737 5735 5734 5733 5731 5730 5728 5726
5824 5824 5823 5822 5822 5822 5819 5818 5819 5820 5819 5818 5817 5816 5814 5812 5811 5812 5812 5810 5810 5809 5808 5807 5806 5805 5804 5801 5799 5799 5799 5798 5797 5797 5796 5795 5795 5795 5794 5794 5794 5793 5792 5790 5789 5788 5786 5785 5783 5782 5780 5779 5778 5776 5775 5773 5772 5770 5769 5767 5766 5764 5763 5761 5760 5758 5756 5754 5753 5751 5750 5748 5747 5745 5743 5742 5740 5738 5736 5734 5732 5730 5729 5728 5726 5724 5723
5822 5822 5821 5820 5820 5820 5818 5816 5817 5818 5817 5815 5814 5814 5812 5809 5809 5810 5810 5808 5807 5807 5806 5805 5804 5802 5800 5798 5797 5798 5798 5797 5795 5795 5794 5794 5793 5793 5793 5792 5792 5791 5789 5788 5787 5785 5784 5782 5781 5779 5778 5776 5775 5774 5772 5770 5769 5767 5766 5764 5762 5761 5759 5758 5756 5755 5753 5752 5750 5749 5747 5745 5743 5742 5740 5738 5737 5735 5733 5731 5729 5727 5725 5724 5723 5721 5719
5820 5819 5819 5818 5818 5818 5816 5813 5815 5816 5815 5812 5812 5812 5810 5808 5807 5808 5807 5806 5805 5804 5804 5804 5803 5801 5798 5795 5795 5796 5796 5795 5794 5793 5793 5793 5792 5792 5791 5790 5789 5788 5787 5785 5784 5782 5781 5780 5779 5777 5775 5774 5772 5771 5769 5767 5765 5764 5763 5761 5759 5757 5756 5754 5753 5751 5750 5748 5746 5745 5743 5742 5740 5738 5736 5734 5732 5731 5729 5727 5726 5724 5722 5720 5719 5717 5716
5817 5816 5816 5815 5815 5816 5814 5811 5812 5814 5812 5810 5810 5809 5807 5806 5805 5804 5803 5803 5802 5802 5802 5801 5801 5800 5796 5794 5794 5794 5793 5793 5793 5792 5791 5790 5790 5789 5789 5788 5786 5785 5784 5782 5781 5779 5778 5777 5776 5775 5773 5771 5769 5767 5766 5764 5762 5760 5759 5758 5756 5754 5752 5750 5749 5747 5746 5745 5743 5741 5739 5737 5736 5734 5732 5730 5729 5727 5724 5723 5721 5719 5717 5715 5714 5713 5711
5813 5812 5812 5812 5812 5813 5811 5808 5809 5811 5809 5808 5807 5806 5804 5804 5803 5802 5801 5800 5799 5799 5799 5799 5798 5798 5795 5793 5793 5792 5790 5789 5789 5789 5788 5786 5786 5785 5785 5784 5783 5781 5780 5779 5777 5776 5774 5773 5772 5771 5770 5769 5767 5765 5764 5761 5759 5757 5756 5755 5753 5751 5749 5747 5746 5744 5743 5742 5740 5738 5736 5734 5732 5731 5729 5727 5725 5723 5721 5719 5717 5715 5713 5711 5710 5708 5707
5809 5809 5808 5808 5809 5809 5807 5806 5806 5807 5806 5805 5803 5802 5802 5802 5801 5799 5799 5798 5797 5796 5796 5796 5796 5795 5792 5791 5791 5790 5788 5787 5786 5785 5785 5783 5782 5781 5781 5780 5778 5777 5776 5775 5773 5772 5771 5769 5768 5767 5766 5765 5764 5762 5761 5759 5756 5754 5753 5752 5750 5748 5746 5744 5743 5741 5740 5738 5737 5735 5733 5731 5729 5727 5725 5723 5722 5720 5718 5716 5714 5712 5710 5707 5706 5704 5702
5806 5806 5805 5804 5804 5804 5803 5803 5802 5803 5803 5801 5799 5800 5800 5798 5797 5796 5796 5796 5794 5793 5793 5793 5792 5791 5790 5788 5788 5787 5786 5785 5784 5782 5781 5780 5779 5778 5777 5776 5774 5773 5772 5771 5770 5768 5767 5765 5763 5762 5761 5760 5759 5758 5756 5754 5752 5751 5749 5748 5746 5745 5743 5741 5739 5738 5736 5734 5732 5731 5729 5727 5725 5723 5722 5720 5718 5716 5714 5712 5710 5708 5706 5704 5702 5700 5698
5802 5802 5802 5801 5800 5799 5799 5800 5799 5798 5799 5797 5796 5797 5797 5795 5794 5793 5792 5792 5791 5790 5791 5790 5788 5788 5787 5786 5785 5784 5784 5783 5781 5780 5778 5777 5776 5774 5773 5772 5771 5769 5768 5767 5766 5764 5763 5761 5760 5758 5757 5756 5755 5754 5752 5750 5748 5746 5745 5743 5742 5741 5739 5738 5736 5734 5732 5730 5728 5726 5725 5723 5721 5720 5718 5716 5714 5712 5711 5709 5707 5704 5702 5700 5698 5696 5694
5798 5798 5799 5798 5796 5795 5796 5797 5795 5794 5794 5794 5794 5794 5793 5792 5790 5789 5788 5788 5788 5787 5787 5786 5784 5783 5783 5783 5782 5781 5780 5779 5778 5776 5775 5774 5772 5771 5770 5768 5767 5765 5764 5763 5762 5761 5759 5758 5756 5754 5753 5752 5751 5749 5748 5746 5744 5742 5740 5739 5738 5736 5735 5733 5731 5729 5727 5726 5724 5722 5720 5719 5718 5716 5714 5712 5710 5708 5706 5705 5703 5701 5698 5696 5694 5692 5690
5795 5795 5795 5794 5793 5792 5792 5793 5793 5791 5790 5790 5790 5790 5790 5788 5786 5786 5786 5785 5784 5783 5783 5782 5781 5780 5779 5778 5778 5776 5775 5775 5774 5773 5771 5770 5769 5768 5766 5765 5763 5762 5761 5760 5758 5757 5755 5754 5752 5750 5748 5747 5745 5744 5743 5742 5740 5738 5736 5734 5733 5732 5730 5729 5727 5725 5724 5722 5720 5718 5716 5715 5714 5712 5710 5709 5707 5705 5703 5701 5699 5697 5694 5692 5690 5688 5686
5792 5791 5792 5791 5791 5789 5788 5788 5789 5788 5787 5785 5784 5785 5786 5785 5783 5783 5782 5780 5779 5779 5778 5777 5777 5776 5774 5774 5773 5772 5771 5770 5769 5768 5767 5767 5765 5764 5763 5762 5760 5759 5757 5756 5755 5753 5751 5750 5748 5746 5744 5742 5740 5739 5738 5737 5735 5734 5732 5730 5728 5727 5725 5724 5722 5721 5720 5718 5716 5715 5713 5711 5709 5708 5706 5704 5703 5701 5699 5697 5695 5693 5690 5688 5686 5683 5681
5788 5788 5788 5788 5787 5786 5784 5784 5783 5783 5782 5780 5779 5780 5781 5781 5780 5778 5777 5776 5776 5775 5774 5773 5772 5772 5771 5769 5768 5767 5766 5765 5765 5764 5763 5762 5761 5760 5758 5757 5756 5754 5753 5752 5751 5749 5748 5746 5745 5743 5741 5740 5738 5736 5734 5733 5731 5729 5728 5726 5725 5723 5721 5720 5719 5717 5716 5714 5712 5711 5709 5708 5706 5704 5702 5700 5699 5697 5695 5693 5690 5688 5686 5683 5681 5679 5676
5783 5784 5784 5784 5783 5782 5780 5779 5779 5779 5778 5776 5776 5777 5777 5777 5775 5773 5772 5772 5772 5771 5770 5769 5768 5767 5767 5765 5763 5762 5761 5760 5760 5759 5758 5757 5756 5755 5754 5752 5751 5750 5748 5746 5745 5745 5743 5742 5740 5739 5737 5736 5735 5733 5731 5729 5727 5725 5724 5722 5721 5719 5718 5716 5715 5714 5712 5710 5708 5706 5705 5704 5702 5700 5698 5696 5695 5693 5691 5688 5686 5684 5681 5679 5676 5674 5672
5778 5779 5779 5779 5778 5777 5776 5775 5774 5775 5774 5772 5771 5772 5772 5771 5770 5769 5768 5767 5767 5766 5765 5764 5763 5763 5762 5761 5759 5758 5757 5756 5755 5754 5753 5753 5751 5750 5749 5747 5746 5745 5743 5741 5739 5739 5738 5737 5735 5734 5732 5731 5730 5728 5727 5725 5723 5721 5720 5719 5717 5716 5713 5712 5711 5709 5708 5706 5704 5702 5701 5699 5697 5696 5694 5692 5690 5688 5686 5684 5681 5679 5677 5674 5672 5669 5666
5774 5774 5774 5773 5772 5772 5771 5770 5769 5770 5770 5768 5766 5767 5767 5765 5764 5763 5763 5762 5762 5761 5760 5759 5758 5758 5757 5756 5754 5753 5752 5751 5750 5749 5748 5747 5746 5745 5744 5742 5741 5740 5739 5737 5735 5733 5732 5732 5731 5729 5727 5726 5725 5723 5722 5720 5718 5716 5715 5713 5713 5711 5709 5707 5705 5704 5703 5701 5699 5697 5695 5694 5692 5691 5688 5686 5684 5682 5680 5678 5676 5674 5671 5669 5667 5665 5662
5768 5769 5769 5768 5767 5767 5766 5765 5765 5765 5764 5763 5761 5761 5761 5759 5758 5758 5758 5757 5756 5755 5755 5754 5753 5752 5751 5750 5749 5748 5747 5746 5745 5744 5743 5742 5741 5740 5738 5737 5735 5734 5733 5732 5730 5728 5726 5725 5724 5723 5722 5721 5720 5718 5716 5714 5713 5711 5709 5708 5707 5706 5704 5702 5700 5698 5697 5696 5694 5692 5690 5688 5686 5684 5682 5680 5679 5677 5675 5673 5671 5669 5667 5663 5661 5659 5657
5763 5763 5763 5762 5762 5761 5760 5760 5760 5759 5759 5758 5756 5755 5754 5752 5752 5753 5752 5751 5750 5750 5749 5748 5747 5746 5745 5744 5743 5742 5742 5741 5740 5739 5738 5737 5735 5734 5732 5731 5730 5728 5726 5725 5724 5722 5721 5719 5717 5717 5716 5715 5714 5713 5711 5709 5707 5705 5704 5702 5701 5700 5698 5696 5694 5692 5691 5689 5688 5686 5684 5682 5681 5678 5676 5674 5673 5671 5670 5667 5666 5665 5663 5660 5656 5654 5651
5757 5757 5756 5756 5756 5755 5754 5754 5754 5753 5753 5752 5750 5749 5748 5746 5746 5746 5745 5745 5745 5745 5743 5741 5740 5739 5739 5739 5738 5738 5737 5735 5734 5733 5732 5732 5731 5729 5727 5725 5724 5723 5721 5719 5717 5716 5715 5713 5711 5710 5709 5708 5707 5706 5705 5703 5701 5699 5698 5696 5695 5693 5692 5690 5688 5686 5684 5683 5681 5680 5678 5676 5675 5674 5671 5668 5666 5665 5663 5661 5660 5659 5657 5655 5652 5649 5646
5751 5750 5750 5751 5750 5749 5748 5748 5747 5747 5746 5744 5743 5743 5741 5740 5740 5740 5738 5738 5739 5739 5737 5736 5734 5734 5733 5733 5733 5732 5731 5730 5729 5727 5726 5725 5724 5723 5721 5720 5718 5717 5715 5713 5712 5711 5709 5706 5705 5704 5703 5702 5701 5699 5698 5696 5694 5693 5691 5690 5689 5687 5685 5683 5682 5680 5678 5676 5675 5674 5672 5669 5668 5668 5666 5663 5661 5659 5656 5656 5655 5653 5651 5649 5647 5644 5642
5744 5743 5743 5743 5744 5743 5742 5741 5740 5740 5740 5739 5738 5737 5735 5733 5732 5732 5732 5733 5733 5732 5731 5730 5729 5729 5728 5727 5726 5726 5725 5724 5723 5721 5720 5718 5717 5716 5715 5713 5713 5711 5709 5706 5706 5704 5702 5700 5699 5698 5696 5695 5694 5692 5691 5689 5687 5686 5685 5684 5683 5681 5679 5677 5675 5674 5672 5670 5669 5668 5666 5664 5661 5660 5659 5658 5656 5653 5650 5649 5649 5647 5645 5643 5641 5639 5637
5735 5735 5734 5735 5737 5736 5734 5733 5734 5735 5735 5733 5730 5729 5727 5726 5726 5726 5727 5727 5727 5725 5725 5724 5724 5723 5723 5721 5719 5718 5718 5717 5716 5715 5714 5712 5710 5709 5708 5707 5707 5705 5702 5700 5699 5698 5694 5692 5691 5691 5690 5689 5687 5685 5683 5683 5681 5679 5678 5677 5675 5673 5672 5671 5669 5667 5666 5665 5663 5661 5660 5658 5656 5654 5652 5651 5650 5648 5645 5643 5642 5641 5640 5638 5636 5634 5632
5726 5727 5726 5726 5727 5727 5726 5728 5729 5728 5725 5723 5722 5722 5721 5721 5721 5722 5721 5720 5719 5718 5717 5718 5718 5717 5716 5714 5713 5712 5711 5710 5709 5708 5707 5705 5703 5701 5699 5699 5699 5697 5694 5693 5693 5691 5687 5685 5684 5684 5682 5680 5678 5677 5677 5677 5675 5672 5670 5669 5668 5666 5665 5664 5663 5661 5660 5659 5657 5655 5652 5650 5649 5648 5645 5643 5643 5642 5640 5638 5637 5635 5634 5633 5631 5629 5627
5718 5719 5720 5719 5720 5720 5720 5720 5719 5716 5715 5716 5717 5717 5716 5716 5715 5715 5713 5712 5711 5711 5710 5711 5711 5710 5708 5707 5707 5705 5704 5703 5702 5700 5699 5697 5696 5694 5692 5691 5691 5690 5688 5686 5685 5683 5680 5678 5677 5676 5674 5672 5671 5671 5671 5669 5666 5665 5663 5662 5660 5659 5658 5657 5656 5655 5654 5652 5650 5649 5646 5643 5642 5641 5639 5637 5636 5635 5633 5632 5631 5629 5628 5627 5625 5623 5621
5711 5713 5713 5712 5712 5712 5711 5710 5709 5707 5708 5710 5709 5709 5709 5709 5707 5706 5705 5704 5703 5703 5703 5704 5703 5702 5701 5700 5699 5698 5697 5696 5694 5693 5691 5689 5688 5687 5686 5684 5683 5682 5681 5679 5677 5675 5673 5672 5670 5669 5668 5666 5666 5665 5663 5661 5658 5657 5656 5655 5654 5652 5651 5650 5649 5647 5646 5645 5643 5642 5640 5637 5635 5634 5633 5631 5629 5628 5627 5626 5625 5623 5622 5621 5619 5618 5615
5704 5706 5705 5704 5704 5703 5702 5702 5701 5700 5701 5702 5702 5701 5702 5701 5699 5698 5697 5697 5696 5696 5696 5696 5695 5694 5694 5693 5691 5691 5689 5688 5686 5684 5682 5681 5680 5679 5678 5676 5675 5674 5672 5671 5669 5667 5666 5665 5664 5663 5662 5661 5659 5657 5655 5653 5651 5650 5649 5648 5647 5646 5644 5643 5641 5640 5639 5638 5635 5634 5633 5631 5628 5627 5626 5624 5623 5621 5620 5619 5618 5617 5616 5615 5613 5611 5609
5697 5697 5697 5696 5696 5695 5693 5693 5694 5693 5693 5694 5695 5694 5693 5692 5691 5690 5690 5690 5689 5689 5688 5687 5686 5686 5686 5684 5683 5682 5681 5679 5677 5676 5674 5673 5672 5671 5669 5668 5667 5666 5664 5663 5661 5660 5659 5659 5658 5656 5655 5654 5651 5649 5648 5646 5645 5643 5642 5641 5640 5638 5637 5636 5634 5632 5631 5630 5628 5626 5625 5623 5621 5620 5619 5618 5616 5615 5614 5613 5612 5611 5610 5608 5606 5605 5604
5687 5688 5688 5688 5688 5687 5686 5686 5686 5686 5686 5686 5686 5686 5685 5684 5684 5683 5683 5682 5681 5681 5680 5679 5678 5678 5678 5676 5674 5673 5672 5671 5669 5667 5666 5666 5664 5662 5661 5660 5659 5658 5656 5655 5655 5654 5652 5651 5650 5649 5648 5646 5643 5642 5641 5640 5638 5636 5635 5634 5632 5631 5629 5629 5627 5625 5623 5622 5620 5619 5617 5616 5614 5613 5612 5611 5610 5609 5607 5607 5606 5604 5603 5602 5600 5599 5598
5679 5679 5681 5681 5681 5680 5679 5679 5679 5679 5679 5678 5678 5677 5677 5677 5676 5675 5675 5674 5673 5672 5671 5670 5669 5669 5668 5667 5665 5664 5663 5662 5660 5659 5658 5658 5657 5655 5654 5653 5651 5650 5649 5648 5647 5647 5645 5644 5642 5641 5640 5638 5635 5635 5635 5633 5630 5629 5628 5626 5624 5623 5622 5621 5619 5617 5615 5614 5613 5611 5609 5608 5607 5606 5605 5604 5603 5603 5601 5600 5599 5598 5597 5595 5594 5592 5591
5671 5672 5673 5673 5673 5674 5673 5673 5672 5672 5671 5670 5670 5670 5669 5668 5668 5667 5666 5665 5664 5663 5662 5662 5661 5661 5660 5658 5657 5656 5655 5654 5653 5652 5651 5650 5649 5648 5647 5646 5645 5643 5642 5641 5640 5639 5638 5637 5635 5634 5633 5631 5628 5627 5627 5626 5623 5622 5620 5618 5616 5615 5614 5612 5611 5609 5607 5606 5605 5604 5602 5600 5600 5599 5598 5597 5596 5595 5595 5594 5592 5591 5590 5588 5587 5586 5585
5665 5665 5665 5665 5666 5667 5666 5665 5665 5665 5664 5664 5663 5662 5661 5660 5660 5659 5658 5657 5655 5655 5654 5654 5653 5653 5652 5651 5649 5648 5647 5647 5646 5645 5644 5643 5642 5641 5640 5639 5638 5637 5635 5634 5633 5632 5631 5630 5628 5626 5625 5623 5619 5619 5620 5618 5615 5613 5612 5610 5608 5607 5605 5604 5603 5601 5600 5598 5597 5596 5595 5593 5592 5591 5591 5590 5589 5587 5586 5586 5585 5584 5583 5582 5581 5580 5579
5659 5659 5659 5659 5659 5659 5659 5658 5657 5657 5656 5656 5655 5654 5653 5653 5652 5651 5650 5649 5647 5647 5647 5646 5646 5646 5645 5644 5643 5641 5640 5640 5639 5637 5637 5635 5635 5634 5633 5631 5630 5629 5628 5627 5627 5625 5624 5622 5620 5618 5616 5615 5612 5612 5611 5610 5607 5606 5604 5602 5600 5599 5597 5596 5595 5593 5592 5591 5590 5589 5587 5586 5585 5584 5583 5583 5583 5582 5580 5578 5577 5577 5576 5575 5574 5573 5572
5652 5652 5652 5652 5652 5652 5651 5650 5650 5649 5648 5648 5647 5646 5645 5644 5644 5643 5642 5641 5640 5640 5639 5639 5639 5638 5637 5636 5636 5634 5634 5633 5631 5630 5629 5628 5627 5627 5625 5623 5622 5622 5621 5620 5619 5619 5616 5613 5611 5610 5609 5607 5606 5604 5603 5601 5599 5598 5596 5594 5592 5591 5589 5588 5586 5585 5584 5583 5582 5581 5580 5579 5578 5577 5576 5576 5577 5576 5574 5572 5571 5569 5569 5568 5568 5567 5566
5645 5645 5645 5644 5644 5644 5643 5643 5642 5641 5641 5640 5640 5639 5638 5637 5637 5636 5635 5634 5633 5633 5632 5632 5631 5630 5629 5629 5628 5627 5626 5625 5624 5623 5622 5621 5620 5619 5618 5615 5614 5614 5614 5612 5612 5611 5608 5605 5603 5602 5601 5600 5598 5597 5595 5593 5591 5589 5587 5585 5584 5582 5581 5580 5578 5578 5577 5575 5575 5574 5573 5572 5571 5570 5568 5569 5569 5568 5566 5566 5565 5563 5562 5562 5561 5560 5559
5638 5637 5637 5637 5636 5636 5636 5635 5635 5634 5634 5633 5633 5632 5632 5631 5630 5629 5628 5627 5626 5626 5625 5624 5623 5623 5622 5622 5621 5620 5619 5618 5616 5615 5614 5613 5612 5612 5610 5607 5605 5604 5605 5604 5603 5602 5600 5596 5593 5593 5593 5592 5589 5588 5587 5585 5582 5581 5579 5577 5576 5574 5573 5572 5571 5570 5569 5568 5567 5566 5566 5565 5564 5562 5561 5562 5562 5560 5559 5558 5557 5556 5555 5555 5554 5553 5552
5631 5631 5630 5630 5630 5630 5629 5628 5628 5627 5627 5627 5626 5626 5625 5624 5623 5623 5622 5621 5620 5619 5618 5617 5616 5616 5615 5614 5613 5612 5611 5610 5608 5607 5606 5604 5604 5603 5602 5599 5597 5595 5595 5594 5593 5592 5591 5587 5584 5583 5584 5583 5580 5579 5578 5576 5575 5573 5571 5570 5568 5566 5565 5564 5563 5562 5561 5560 5559 5558 5558 5557 5556 5555 5554 5555 5555 5554 5552 5551 5551 5549 5548 5546 5546 5546 5545
5625 5625 5624 5624 5624 5623 5623 5622 5622 5621 5620 5620 5620 5619 5618 5617 5617 5616 5616 5615 5614 5613 5612 5611 5609 5609 5608 5607 5606 5605 5603 5602 5600 5599 5598 5597 5596 5594 5593 5591 5589 5587 5586 5585 5584 5583 5582 5579 5576 5575 5574 5573 5572 5571 5570 5569 5567 5565 5564 5562 5561 5560 5558 5557 5556 5555 5554 5554 5553 5552 5551 5550 5549 5548 5547 5547 5548 5548 5546 5545 5543 5542 5540 5539 5538 5538 5538
5620 5619 5619 5618 5618 5617 5616 5616 5616 5615 5614 5614 5613 5612 5611 5611 5610 5610 5609 5608 5607 5606 5606 5604 5603 5601 5600 5599 5598 5596 5595 5594 5592 5591 5589 5588 5587 5585 5584 5582 5580 5578 5577 5577 5576 5574 5573 5571 5570 5568 5567 5565 5564 5563 5562 5561 5560 5558 5557 5556 5554 5553 5552 5551 5550 5549 5548 5547 5547 5546 5545 5543 5542 5542 5541 5540 5541 5541 5540 5538 5535 5534 5533 5532 5531 5531 5531
5614 5614 5613 5613 5612 5611 5610 5610 5610 5609 5608 5608 5607 5606 5605 5605 5604 5603 5602 5601 5600 5599 5598 5597 5596 5594 5593 5592 5590 5589 5587 5586 5584 5582 5581 5580 5579 5577 5575 5574 5573 5571 5570 5569 5569 5567 5565 5564 5563 5562 5560 5559 5557 5556 5555 5554 5553 5552 5550 5549 5548 5547 5546 5545 5544 5543 5542 5541 5540 5540 5539 5537 5536 5535 5534 5533 5533 5533 5532 5530 5528 5527 5527 5526 5524 5524 5524
5609 5608 5607 5607 5606 5605 5605 5605 5604 5604 5603 5602 5601 5600 5599 5598 5598 5597 5596 5594 5593 5592 5591 5590 5588 5587 5586 5584 5583 5581 5580 5578 5577 5575 5573 5571 5571 5570 5569 5567 5566 5564 5563 5562 5562 5561 5559 5558 5556 5555 5554 5552 5551 5550 5549 5547 5546 5545 5544 5543 5542 5540 5539 5539 5538 5537 5536 5535 5534 5533 5532 5531 5529 5528 5527 5526 5525 5525 5523 5522 5521 5521 5521 5520 5518 5516 5515
5603 5602 5602 5601 5601 5600 5600 5599 5599 5598 5597 5596 5595 5594 5593 5592 5591 5590 5588 5587 5586 5585 5584 5582 5581 5580 5578 5577 5575 5573 5572 5571 5570 5568 5566 5565 5564 5563 5562 5561 5560 5558 5557 5556 5555 5554 5553 5552 5550 5548 5547 5546 5545 5544 5543 5541 5539 5539 5538 5536 5535 5534 5533 5532 5531 5530 5529 5528 5528 5527 5525 5524 5522 5521 5520 5519 5518 5517 5516 5515 5514 5514 5514 5513 5512 5510 5508
5597 5597 5596 5596 5596 5595 5594 5593 5592 5591 5590 5589 5588 5587 5586 5585 5584 5583 5582 5580 5579 5578 5577 5575 5574 5573 5571 5570 5568 5567 5565 5564 5563 5562 5560 5559 5558 5557 5555 5554 5554 5552 5551 5550 5549 5548 5547 5545 5544 5542 5540 5539 5538 5538 5537 5535 5533 5532 5531 5530 5529 5528 5527 5526 5525 5524 5522 5522 5521 5520 5518 5517 5515 5514 5513 5512 5511 5510 5509 5508 5507 5507 5507 5507 5506 5504 5503
5592 5591 5591 5590 5590 5589 5588 5587 5586 5584 5584 5583 5582 5580 5580 5579 5578 5577 5575 5574 5573 5572 5570 5569 5568 5567 5565 5564 5562 5561 5560 5559 5557 5556 5554 5553 5552 5551 5549 5548 5547 5547 5545 5544 5542 5541 5540 5539 5537 5536 5534 5533 5532 5532 5530 5529 5527 5526 5525 5524 5523 5522 5521 5519 5518 5517 5516 5515 5514 5513 5511 5510 5509 5508 5507 5506 5505 5504 5503 5503 5502 5502 5501 5501 5500 5498 5497
5587 5586 5585 5584 5583 5583 5583 5581 5579 5578 5577 5577 5576 5574 5573 5572 5572 5571 5570 5568 5566 5565 5564 5563 5562 5561 5559 5558 5557 5556 5555 5553 5551 5550 5549 5548 5546 5545 5543 5542 5541 5540 5539 5537 5536 5535 5534 5532 5531 5529 5528 5526 5526 5525 5524 5522 5521 5520 5519 5518 5517 5515 5514 5513 5512 5511 5510 5508 5507 5506 5505 5504 5503 5502 5501 5499 5498 5498 5497 5497 5497 5497 5497 5496 5494 5493 5491
5581 5580 5579 5578 5578 5577 5577 5576 5574 5573 5572 5571 5570 5568 5567 5566 5565 5565 5563 5561 5560 5559 5558 5557 5556 5555 5553 5552 5551 5550 5548 5547 5545 5544 5543 5541 5540 5539 5537 5536 5535 5534 5533 5531 5530 5529 5528 5526 5525 5524 5522 5520 5520 5519 5518 5517 5515 5514 5513 5512 5511 5509 5508 5507 5506 5505 5504 5502 5501 5500 5499 5498 5497 5496 5495 5494 5493 5492 5492 5492 5492 5492 5491 5490 5489 5487 5487
5575 5574 5574 5573 5572 5571 5570 5570 5568 5567 5566 5565 5563 5562 5561 5560 5559 5558 5556 5554 5553 5552 5551 5551 5550 5549 5547 5546 5545 5544 5542 5541 5540 5538 5537 5535 5534 5533 5532 5530 5529 5528 5527 5526 5524 5523 5522 5520 5519 5518 5517 5515 5514 5514 5513 5511 5510 5508 5507 5506 5505 5503 5502 5501 5500 5499 5498 5496 5495 5495 5493 5492 5491 5490 5489 5488 5487 5487 5487 5486 5486 5485 5485 5485 5485 5484 5483